sat.trackr.live / text

‹ back to catalog

STARLINK-4294

NORAD 53176 · 2022-083AW

PAYLOAD ACTIVE UNKNOWN

§ Identity

Operator
Country
US
Launch date
2022-07-17
Launch site
AFETR
Launch vehicle
Mass (kg)
RCS (m²)

Purposes: comms

External: N2YO · Heavens-Above · Gunter

§ Orbital elements

Epoch: 2026-09-19T16:10:08.255424Z

Period
94.01 min
Inclination
53.1601°
Eccentricity
0.0001161
Mean motion
15.31699883 rev/d
Perigee alt
469.9 km
Apogee alt
471.5 km
Semi-major
6,848.9 km
B*
4.7246e-5
RAAN
346.6549°
Arg perigee
85.2379°
Mean anomaly
274.8755°
Rev number
23,100

§ Raw data

STARLINK-42941 53176U 22083AW  26262.67370666  .00001101  00000+0  47246-4 0  99952 53176  53.1601 346.6549 0001161  85.2379 274.8755 15.31699883231007

JSON: /api/v1/satellites/53176 · /tle

For live sub-satellite position, see the globe view (requires WebGL).

§ Visibility from observer

Set your observer location to see the next 7 days of passes ≥ 10°. The values pass through the URL so the page stays shareable.

No JS? Fill the form by hand. The geolocation button needs JavaScript.